www.pogodaiklimat.ru
ПОГОДА в Лизбурге
Время
и дата
15:35 08.02
15:55 08.02
16:15 08.02
16:35 08.02
16:55 08.02
17:15 08.02
17:35 08.02
17:55 08.02
18:15 08.02
18:35 08.02
18:55 08.02
19:15 08.02
19:35 08.02
19:55 08.02
20:15 08.02
20:35 08.02
20:55 08.02
21:15 08.02
21:35 08.02
21:55 08.02
22:15 08.02
22:35 08.02
22:55 08.02
23:15 08.02
23:35 08.02
23:55 08.02
00:15 09.02
00:35 09.02
00:55 09.02
01:15 09.02
01:35 09.02
01:55 09.02
02:15 09.02
02:35 09.02
02:55 09.02
03:15 09.02
03:35 09.02
03:55 09.02
04:15 09.02
04:35 09.02
04:55 09.02
05:15 09.02
05:35 09.02
05:55 09.02
06:15 09.02
06:35 09.02
06:55 09.02
07:15 09.02
Ветер
(напр.,м/с)
Видим. Явления Облачность Т
(С)
Тd
(С)
f
(%)
Тe
(С)
Тes
(С)
Комфортность P
(гПа)
Po
(гПа)
Тmin
(С)
Tmax
(С)
R
(мм)
R24
(мм)
S
(см)
С 4 16 км ясно +17.0 +1.0 34 +17 +19 1009.6
СЗ 4 16 км ясно +17.0 0.0 32 +17 +19 1009.6
С 3 16 км ясно +17.0 0.0 32 +17 +18 1009.9
штиль 0 16 км ясно +17.0 0.0 32 +17 +19 1009.9
С 2 16 км ясно +17.0 0.0 32 +17 +19 1009.9
С 2 16 км ясно +16.0 0.0 34 +16 +16 1009.9
штиль 0 16 км ясно +16.0 0.0 34 +16 +16 1010.2
штиль 0 16 км ясно +15.0 0.0 36 +15 +15 1010.2
В 2 16 км ясно +13.0 0.0 41 +13 +13 1010.9
СВ 2 16 км ясно +12.0 0.0 44 +11 +11 1010.9
штиль 0 16 км ясно +12.0 0.0 44 +12 +12 1010.9
С 2 16 км ясно +10.0 0.0 50 +9 +9 1010.9
штиль 0 16 км ясно +9.0 0.0 53 +9 +9 1010.9
штиль 0 16 км ясно +9.0 0.0 53 +9 +9 1010.9
С 2 16 км ясно +8.0 0.0 57 +6 +6 1011.2
СВ 2 16 км ясно +10.0 0.0 50 +9 +9 1011.2
С 2 16 км ясно +9.0 0.0 53 +8 +8 1011.2
штиль 0 16 км ясно +9.0 0.0 53 +9 +9 1011.6
СВ 2 16 км ясно +8.0 0.0 57 +6 +6 1011.6
штиль 0 16 км ясно +8.0 0.0 57 +8 +8 1011.9
С 2 16 км ясно +8.0 0.0 57 +6 +6 1011.9
С 2 16 км ясно +8.0 0.0 57 +6 +6 1011.9
СВ 2 16 км ясно +8.0 0.0 57 +6 +6 1011.9
штиль 0 16 км ясно +7.0 0.0 61 +7 +7 1011.6
штиль 0 16 км ясно +6.0 0.0 65 +5 +5 1011.9
штиль 0 16 км ясно +7.0 0.0 61 +7 +7 1011.6
штиль 0 16 км ясно +5.0 0.0 70 +4 +4 1011.6
С 2 16 км ясно +5.0 0.0 70 +3 +3 1011.6
штиль 0 16 км ясно +6.0 0.0 65 +5 +5 1011.2
СВ 2 16 км 5/0 3000 m
[Ac]
+6.0 0.0 65 +4 +4 1011.2
штиль 0 16 км 5/0 3300 m
[Ac]
+7.0 0.0 61 +7 +7 1011.2
штиль 0 16 км 8/0 3300 m
[Ac]
+7.0 0.0 61 +7 +7 1010.9
штиль 0 16 км 8/0 3300 m
[Ac]
+7.0 +1.0 66 +6 +6 1010.9
штиль 0 16 км 8/0 3000 m
[Ac]
+6.0 +1.0 70 +5 +5 1010.9
штиль 0 16 км 10/0 3000 m
[Ac]
+6.0 +1.0 70 +5 +5 1010.6
штиль 0 16 км 10/0 3300 m
[Ac]
+6.0 +2.0 75 +5 +5 1010.2
штиль 0 16 км 10/5 1950 m
[Ac]
+6.0 +2.0 75 +5 +5 1009.9
штиль 0 16 км 10/10 1950 м +6.0 +2.0 75 +5 +5 1009.6
штиль 0 16 км 10/10 1650 м +6.0 +2.0 75 +5 +5 1009.6
СЗ 2 16 км 10/10 1650 м +6.0 +3.0 81 +4 +4 1010.2
штиль 0 16 км 10/10 1650 м +6.0 +2.0 75 +5 +5 1009.9
штиль 0 16 км 10/10 1650 м +7.0 +2.0 70 +6 +6 1009.6
штиль 0 16 км 10/10 1500 м +7.0 +2.0 70 +6 +6 1008.9
штиль 0 16 км 10/10 1500 м +7.0 +3.0 76 +6 +6 1008.9
штиль 0 16 км 10/8 1500 m
[Ac]
+7.0 +3.0 76 +6 +6 1008.9
штиль 0 16 км 8/5 1500 m
[Ac]
+7.0 +3.0 76 +6 +6 1008.9
штиль 0 16 км 8/8 1500 м +7.0 +3.0 76 +6 +6 1008.6
штиль 0 16 км 8/8 1500 м +7.0 +3.0 76 +6 +6 1008.2
Местоположение метеостанции Leesburg Executive Airport: широта 39.0833 долгота -77.5667 высота над уровнем моря 119 м.
В архиве по умолчанию представлена погода в Лизбурге за последние 1-2 суток. Обновление информации о фактической погоде в базе происходит ежечасно! Архивные данные за месяц целиком и за предыдущие месяцы Вы можете получить, выбрав интересующий диапазон дат из раскрывающегося списка и нажав кнопку "Ввод!".
Внимание! Архив погоды МЕТАР в базе сайта по станциям, не включенным в климатический монитор, хранится не более 60 дней. Нет смысла пытаться выбрать более раннюю дату.
*Определитесь, кто Вы:
Внимание! Время в таблицах - местное (без учета летнего времени). Для получения всемирного времени необходимо вычесть поправку, которая равна -5 ч.
Смотрите также архив погоды в соседних городах и на ближайших метеорологических станциях:
Партнеры нашего сайта:      
Пояснения к столбцам:
  • Ветер - указаны скорость ветра в м/с - средняя за 10 мин, порывы в срок и между сроками (в фигурных скобках) и направление, откуда дует ветер: С - северный,
  • СВ - северо-восточный, В - восточный, ЮВ - юго-восточный, Ю - южный, ЮЗ - юго-западный, З - западный, СЗ - северо-западный.
  • Видимость - горизонтальная дальность видимости в метрах или километрах. При видимости от 1 до 10 км при отсутствии осадков обычно наблюдается дымка, при ухудшении видимости до 1 км и менее - туман. В сухую погоду видимость может ухудшаться дымом, пылью или мглою.
  • Явления - указаны атмосферные явления, наблюдавшиеся в срок или в последний час перед сроком; фигурными скобками обозначены явления, наблюдавшиеся между сроками (за 1-3 часа до срока); квадратными скобками обозначены град или гололедные отложения с указанием их диаметра в мм.
  • Облачность - указаны через наклонную черту общая и нижняя облачность в баллах и высота нижней границы облаков в метрах; квадратными скобками обозначены формы облаков: Ci - перистые, Cs - перисто-слоистые, Cc - перисто-кучевые, Ac - высококучевые, As - высокослоистые, Sc - слоисто-кучевые, Ns - слоисто-дождевые, Cu - кучевые, Cb - кучево-дождевые. Подробнее классификацию облаков см. в Атласе облаков (PDF).
  • T - Температура воздуха - температура, измеренная на высоте 2 м над землей.
  • Td - Температура точки росы - температура, при понижении до которой содержащийся в воздухе водяной пар достигнет насыщения.
  • f - Относительная влажность воздуха - влажноcть воздуха, измеренная на высоте 2 м над землей.
  • Te - Эффективная температура - температура, которую ощущает одетый по сезону человек в тени. Характеристика душности погоды. При расчете учитывается влияние влажности воздуха и скорости ветра на теплоощущения человека.
  • Tes - Эффективная температура на солнце - температура, которую ощущает человек, с поправкой на солнечный нагрев. Характеристика знойности погоды. Зависит от высоты солнца над горизонтом, облачности и скорости ветра. Ночью, в пасмурную погоду, а также при ветре 12 м/с и более поправка равна нулю.
  • P - Атмосферное давление - приведенное к уровню моря атмосферное давление.
  • Po - Атмосферное давление - измеренное на уровне метеостанции атмосферное давление.
  • Tmin - Минимальная температура - минимум температуры воздуха на высоте 2 м над землей.
  • Tmax - Максимальная температура - максимум температуры воздуха на высоте 2 м над землей.
  • R - Количество осадков - Количество выпавших осадков за период времени, мм. При наведении курсора мыши на число - период времени, за который выпало указанное количество осадков.
  • R24 - Количество осадков - Количество выпавших осадков за 24 часа, мм.
  • S - Снежный покров - Высота снежного покрова, см. При наведении курсора мыши на число - состояние снежного покрова и степень покрытия местности в баллах.